Location: Dover
(48.8500°N, 53.9833°W)
Time: 07:27:15
(UTC+00:00)

Cosmos 2278 Rocket - Pass Details

Date: 14 November 2025
Orbit: 841 x 843 km, 71.0° (Epoch: 12 December)

Event Time Altitude Azimuth Distance (km) Brightness Sun altitude
Rises 23:43:11 0° 248° (WSW) 3,392 6.0 -37.1°
Reaches altitude 10° 23:46:04 10° 262° (W) 2,460 5.2 -37.5°
Maximum altitude 23:50:40 25° 316° (NW) 1,645 4.1 -38.2°
Enters shadow 23:50:44 25° 317° (NW) 1,645 4.1 -38.3°
